N474KC SCEL-SCSE

Flight info

Callsign N474KC
Flight time N/A
Altitude 24000
Route DONTI5B/17R N0274F240DONTI Q802 KUGAP KUGAP5
Aircraft PC12/L-SDFGRWY/S

Departure

Time N/A
Airport Comodoro Arturo Merino Benítez International Airport (SCEL)

Arrival

Time 2026-05-03 23:27
Airport La Florida Airport (SCSE)
Time Latitude Longitude Altitude Speed Heading
2026-05-03 22:47 -32.17076 -71.13404 24075 ft 258 kts 342°
2026-05-03 22:47 -32.15291 -71.13735 24076 ft 260 kts 342°
2026-05-03 22:48 -32.13506 -71.14072 24073 ft 261 kts 342°
2026-05-03 22:48 -32.11712 -71.14434 24074 ft 261 kts 341°
2026-05-03 22:48 -32.09942 -71.14794 24069 ft 262 kts 342°
2026-05-03 22:48 -32.08146 -71.15153 24069 ft 262 kts 342°
2026-05-03 22:49 -32.06348 -71.15511 24070 ft 262 kts 342°
2026-05-03 22:49 -32.04550 -71.15870 24065 ft 262 kts 342°
2026-05-03 22:49 -32.02753 -71.16230 24069 ft 261 kts 342°
2026-05-03 22:49 -32.00957 -71.16589 24065 ft 261 kts 342°
2026-05-03 22:50 -31.99163 -71.16947 24070 ft 261 kts 342°
2026-05-03 22:50 -31.97367 -71.17306 24067 ft 261 kts 342°
2026-05-03 22:50 -31.95579 -71.17662 24068 ft 260 kts 342°
2026-05-03 22:50 -31.93795 -71.18018 24066 ft 260 kts 342°
2026-05-03 22:51 -31.92013 -71.18373 24066 ft 260 kts 342°
2026-05-03 22:51 -31.90227 -71.18730 24069 ft 260 kts 342°
2026-05-03 22:51 -31.88462 -71.19082 24065 ft 261 kts 342°
2026-05-03 22:51 -31.86672 -71.19438 24065 ft 260 kts 342°
2026-05-03 22:52 -31.84894 -71.19791 24066 ft 258 kts 342°
2026-05-03 22:52 -31.83117 -71.20145 24066 ft 258 kts 342°
2026-05-03 22:52 -31.81349 -71.20497 24062 ft 257 kts 342°
2026-05-03 22:52 -31.79583 -71.20848 24068 ft 257 kts 342°
2026-05-03 22:53 -31.77794 -71.21128 24061 ft 263 kts 351°
2026-05-03 22:53 -31.75989 -71.21049 24070 ft 263 kts 355°
2026-05-03 22:53 -31.74167 -71.20907 24075 ft 262 kts 355°
2026-05-03 22:53 -31.72342 -71.20784 24074 ft 263 kts 354°
2026-05-03 22:54 -31.70510 -71.20679 24076 ft 264 kts 354°
2026-05-03 22:54 -31.68667 -71.20572 24075 ft 266 kts 354°
2026-05-03 22:54 -31.66811 -71.20457 24071 ft 267 kts 354°
2026-05-03 22:54 -31.64956 -71.20342 24073 ft 267 kts 354°
2026-05-03 22:55 -31.63118 -71.20230 24071 ft 268 kts 354°
2026-05-03 22:55 -31.61252 -71.20117 24069 ft 268 kts 354°
2026-05-03 22:55 -31.59390 -71.20003 24067 ft 268 kts 355°
2026-05-03 22:55 -31.57528 -71.19889 24068 ft 268 kts 354°
2026-05-03 22:56 -31.55663 -71.19777 24068 ft 269 kts 354°
2026-05-03 22:56 -31.53799 -71.19664 24070 ft 269 kts 355°
2026-05-03 22:56 -31.51924 -71.19551 24066 ft 270 kts 355°
2026-05-03 22:56 -31.50044 -71.19437 24022 ft 272 kts 355°
2026-05-03 22:57 -31.48121 -71.19323 23734 ft 279 kts 355°
2026-05-03 22:57 -31.46175 -71.19203 23401 ft 282 kts 355°
2026-05-03 22:57 -31.44209 -71.19082 23059 ft 283 kts 355°
2026-05-03 22:57 -31.42234 -71.18962 22710 ft 285 kts 355°
2026-05-03 22:58 -31.40254 -71.18844 22376 ft 285 kts 356°
2026-05-03 22:58 -31.38272 -71.18725 22035 ft 285 kts 356°
2026-05-03 22:58 -31.36293 -71.18605 21709 ft 285 kts 356°
2026-05-03 22:58 -31.34315 -71.18485 21383 ft 284 kts 356°
2026-05-03 22:59 -31.32345 -71.18366 21057 ft 284 kts 356°
2026-05-03 22:59 -31.30401 -71.18249 20737 ft 282 kts 356°
2026-05-03 22:59 -31.28450 -71.18131 20428 ft 280 kts 357°
2026-05-03 22:59 -31.26504 -71.18014 20115 ft 279 kts 357°
2026-05-03 23:00 -31.24566 -71.17898 19805 ft 279 kts 357°
2026-05-03 23:00 -31.22628 -71.17781 19498 ft 277 kts 358°
2026-05-03 23:00 -31.20707 -71.17665 19194 ft 276 kts 358°
2026-05-03 23:00 -31.18791 -71.17550 18887 ft 275 kts 358°
2026-05-03 23:01 -31.16882 -71.17436 18587 ft 274 kts 358°
2026-05-03 23:01 -31.14986 -71.17319 18286 ft 272 kts 359°
2026-05-03 23:01 -31.13120 -71.16883 17938 ft 277 kts 14°
2026-05-03 23:01 -31.11353 -71.15976 17604 ft 274 kts 15°
2026-05-03 23:02 -31.09505 -71.15784 17281 ft 264 kts 350°
2026-05-03 23:02 -31.07722 -71.16095 16956 ft 262 kts 348°
2026-05-03 23:02 -31.05896 -71.16290 16630 ft 264 kts 354°
2026-05-03 23:02 -31.04053 -71.16267 16304 ft 265 kts 358°
2026-05-03 23:03 -31.02210 -71.16200 15987 ft 265 kts 358°
2026-05-03 23:03 -31.00373 -71.16190 15667 ft 263 kts 356°
2026-05-03 23:03 -30.98543 -71.16203 15353 ft 263 kts 357°
2026-05-03 23:03 -30.96712 -71.16205 15043 ft 262 kts 358°
2026-05-03 23:04 -30.94892 -71.16101 14737 ft 261 kts
2026-05-03 23:04 -30.93077 -71.15995 14439 ft 261 kts 360°
2026-05-03 23:04 -30.91264 -71.15908 14137 ft 261 kts
2026-05-03 23:04 -30.89449 -71.15802 13840 ft 261 kts
2026-05-03 23:05 -30.87663 -71.15689 13512 ft 260 kts
2026-05-03 23:05 -30.85859 -71.15579 13179 ft 259 kts
2026-05-03 23:05 -30.84062 -71.15472 12861 ft 258 kts
2026-05-03 23:05 -30.82271 -71.15366 12529 ft 258 kts
2026-05-03 23:06 -30.80480 -71.15258 12210 ft 257 kts
2026-05-03 23:06 -30.78700 -71.15152 11890 ft 256 kts
2026-05-03 23:06 -30.76931 -71.15046 11585 ft 255 kts
2026-05-03 23:06 -30.75156 -71.14940 11270 ft 254 kts
2026-05-03 23:07 -30.73393 -71.14835 10958 ft 253 kts
2026-05-03 23:07 -30.71642 -71.14730 10659 ft 252 kts
2026-05-03 23:07 -30.69889 -71.14625 10355 ft 252 kts
2026-05-03 23:07 -30.68143 -71.14521 10057 ft 251 kts
2026-05-03 23:08 -30.66405 -71.14416 9739 ft 249 kts
2026-05-03 23:08 -30.64675 -71.14313 9414 ft 249 kts
2026-05-03 23:08 -30.63540 -71.14246 9349 ft 243 kts
2026-05-03 23:08 -30.61872 -71.14146 9271 ft 237 kts
2026-05-03 23:09 -30.59715 -71.14018 9172 ft 232 kts
2026-05-03 23:09 -30.58112 -71.13923 9095 ft 230 kts
2026-05-03 23:09 -30.57034 -71.13859 9049 ft 229 kts
2026-05-03 23:09 -30.55444 -71.13764 8972 ft 228 kts
2026-05-03 23:10 -30.53858 -71.13670 8924 ft 228 kts
2026-05-03 23:10 -30.52277 -71.13576 8871 ft 227 kts
2026-05-03 23:10 -30.50701 -71.13482 8825 ft 227 kts
2026-05-03 23:10 -30.49127 -71.13389 8771 ft 226 kts
2026-05-03 23:11 -30.47551 -71.13295 8713 ft 227 kts
2026-05-03 23:11 -30.45989 -71.13202 8617 ft 229 kts
2026-05-03 23:11 -30.44394 -71.13107 8518 ft 230 kts
2026-05-03 23:11 -30.42791 -71.13012 8420 ft 231 kts
2026-05-03 23:12 -30.41183 -71.12916 8323 ft 231 kts
2026-05-03 23:12 -30.39575 -71.12821 8227 ft 232 kts
2026-05-03 23:12 -30.37962 -71.12725 8130 ft 232 kts
2026-05-03 23:12 -30.36351 -71.12630 8050 ft 232 kts
2026-05-03 23:13 -30.34753 -71.12535 8022 ft 229 kts
2026-05-03 23:13 -30.33161 -71.12441 8012 ft 228 kts
2026-05-03 23:13 -30.31604 -71.12349 8009 ft 227 kts
2026-05-03 23:13 -30.30014 -71.12255 8008 ft 225 kts
2026-05-03 23:14 -30.28471 -71.12164 8013 ft 225 kts
2026-05-03 23:14 -30.26911 -71.12071 8011 ft 224 kts
2026-05-03 23:14 -30.25355 -71.11951 8007 ft 223 kts
2026-05-03 23:14 -30.23933 -71.11250 8006 ft 225 kts 36°
2026-05-03 23:15 -30.22829 -71.09963 8005 ft 225 kts 47°
2026-05-03 23:15 -30.21797 -71.08591 8007 ft 226 kts 48°
2026-05-03 23:15 -30.20760 -71.07218 8006 ft 227 kts 47°
2026-05-03 23:15 -30.19710 -71.05849 7949 ft 229 kts 47°
2026-05-03 23:16 -30.18635 -71.04451 7741 ft 236 kts 47°
2026-05-03 23:16 -30.17536 -71.03016 7532 ft 240 kts 47°
2026-05-03 23:16 -30.16425 -71.01566 7253 ft 242 kts 48°
2026-05-03 23:16 -30.15307 -71.00110 6952 ft 242 kts 48°
2026-05-03 23:17 -30.14185 -70.98650 6650 ft 242 kts 49°
2026-05-03 23:17 -30.13092 -70.97240 6371 ft 235 kts 46°
2026-05-03 23:17 -30.11767 -70.96201 6107 ft 228 kts 26°
2026-05-03 23:17 -30.10347 -70.95407 5852 ft 224 kts 26°
2026-05-03 23:18 -30.08970 -70.94644 5809 ft 218 kts 26°
2026-05-03 23:18 -30.07608 -70.93878 5745 ft 218 kts 26°
2026-05-03 23:18 -30.06235 -70.93131 5669 ft 217 kts 20°
2026-05-03 23:18 -30.04740 -70.92962 5609 ft 218 kts 351°
2026-05-03 23:19 -30.03356 -70.93603 5607 ft 215 kts 324°
2026-05-03 23:19 -30.02379 -70.94888 5544 ft 214 kts 297°
2026-05-03 23:19 -30.01708 -70.96425 5473 ft 215 kts 295°
2026-05-03 23:19 -30.01051 -70.97990 5400 ft 217 kts 295°
2026-05-03 23:20 -30.00384 -70.99557 5327 ft 217 kts 295°
2026-05-03 23:20 -29.99714 -71.01120 5256 ft 218 kts 295°
2026-05-03 23:20 -29.99043 -71.02688 5183 ft 218 kts 295°
2026-05-03 23:20 -29.98376 -71.04259 5111 ft 218 kts 295°
2026-05-03 23:21 -29.97706 -71.05835 5009 ft 220 kts 295°
2026-05-03 23:21 -29.97035 -71.07395 4919 ft 220 kts 295°
2026-05-03 23:21 -29.96353 -71.08981 4827 ft 221 kts 295°
2026-05-03 23:21 -29.95673 -71.10563 4712 ft 214 kts 295°
2026-05-03 23:22 -29.94422 -71.13470 3676 ft 212 kts 295°
2026-05-03 23:22 -29.93761 -71.15009 2793 ft 221 kts 296°
2026-05-03 23:22 -29.93090 -71.16548 1990 ft 208 kts 297°
2026-05-03 23:23 -29.92437 -71.18012 896 ft 202 kts 295°
2026-05-03 23:23 -29.91911 -71.19374 522 ft 169 kts 295°
2026-05-03 23:23 -29.91453 -71.20419 479 ft 125 kts 295°
2026-05-03 23:23 -29.91138 -71.21198 731 ft 94 kts 292°
2026-05-03 23:24 -29.90896 -71.21933 932 ft 104 kts 290°
2026-05-03 23:24 -29.90716 -71.22771 1198 ft 104 kts 269°
2026-05-03 23:24 -29.91102 -71.23381 1454 ft 102 kts 207°
2026-05-03 23:24 -29.91707 -71.22988 1357 ft 123 kts 119°
2026-05-03 23:25 -29.92064 -71.22085 1247 ft 120 kts 113°
2026-05-03 23:25 -29.92397 -71.21253 1123 ft 110 kts 117°
2026-05-03 23:25 -29.92728 -71.20468 990 ft 109 kts 114°
2026-05-03 23:25 -29.93067 -71.19678 873 ft 109 kts 118°
2026-05-03 23:26 -29.93410 -71.18912 887 ft 107 kts 111°
2026-05-03 23:26 -29.93269 -71.18153 919 ft 101 kts 38°
2026-05-03 23:26 -29.92636 -71.18201 808 ft 101 kts 327°
2026-05-03 23:26 -29.92169 -71.18746 685 ft 99 kts 297°
2026-05-03 23:27 -29.91843 -71.19488 486 ft 101 kts 295°
2026-05-03 23:27 -29.91600 -71.20061 472 ft 44 kts 293°
2026-05-03 23:27 -29.91607 -71.20128 472 ft 6 kts 198°
2026-05-03 23:27 -29.91673 -71.20159 472 ft 3 kts 205°
2026-05-03 23:28 -29.91699 -71.20175 476 ft 1 kts 221°
2026-05-03 23:28 -29.91699 -71.20198 476 ft 7 kts 308°
2026-05-03 23:28 -29.91679 -71.20244 477 ft 1 kts 205°
2026-05-03 23:28 -29.91705 -71.20258 476 ft 0 kts 204°